Regional Weather Roundup
Issued by NWS

Home | Current Version | Previous Version | Graphics & Text | Print | Product List | Glossary On
Versions: 1 2 3 4 5 6 7 8 9 10 11 12 13 14 15 16 17 18 19 20 21 22 23 24 25 26 27 28 29 30 31 32 33 34 35 36 37 38 39 40 41 42 43 44 45 46 47 48 49 50
000
ASUS45 KPSR 161710
RWRAZ

ARIZONA HOURLY REGIONAL WEATHER ROUNDUP
NATIONAL WEATHER SERVICE PHOENIX AZ
1000 AM MST SAT DEC 16 2017

NOTE: FAIR INDICATES FEW OR NO CLOUDS BELOW 12,000 FEET WITH NO
SIGNIFICANT WEATHER AND/OR OBSTRUCTIONS TO VISIBILITY.

AZZ001>003-036-161800-
NORTHWEST ARIZONA

CITY           SKY/WX    TMP DP  RH WIND       PRES   REMARKS
BULLHEAD CITY  SUNNY     57   7  13 CALM      29.78F
KINGMAN        MOSUNNY   48   5  17 CALM      29.81R
$$

AZZ004>008-015-016-018-161800-
NORTH CENTRAL ARIZONA

CITY           SKY/WX    TMP DP  RH WIND       PRES   REMARKS
GRAND CANYON   CLOUDY    31  -4  22 CALM      29.86S
WILLIAMS       CLOUDY    41   3  20 CALM      29.84R
PRESCOTT       CLOUDY    42   5  21 CALM      29.84R
FLAGSTAFF      CLOUDY    37   7  28 W5        29.86S WCI  33
PAYSON         CLOUDY    39  14  35 CALM      29.88R
PAGE           CLOUDY    37  10  32 CALM      29.86R
$$

AZZ009>014-017-161800-
NORTHEAST ARIZONA

CITY           SKY/WX    TMP DP  RH WIND       PRES   REMARKS
WINSLOW        CLOUDY    32   5  32 E10       29.84S WCI  24
SAINT JOHNS    PTSUNNY   33  -4  20 CALM      29.85F
WINDOW ROCK    CLOUDY    35  -4  18 CALM      29.87F
SHOW LOW       PTSUNNY   48   0  13 S16G23    29.86S
$$

AZZ540-542>544-546-548-161800-
GREATER PHOENIX AREA

CITY           SKY/WX    TMP DP  RH WIND       PRES   REMARKS
PHOENIX        CLOUDY    54  22  28 SE8       29.80S
BUCKEYE        CLOUDY    54  25  32 SE12      29.79S
GLENDALE       CLOUDY    52  21  30 CALM      29.83R
LUKE AFB       CLOUDY    52  24  34 NE5       29.80S
DEER VALLEY    CLOUDY    52  20  28 E3        29.81R
SCOTTSDALE     CLOUDY    52  24  33 CALM      29.82S
MESA-FALCON    SUNNY     55  19  24 NE6       29.82S
MESA-GATEWAY   CLOUDY    52  18  25 CALM      29.83R
CHANDLER       CLOUDY    50  21  32 NW3       29.82R
$$

AZZ539-553-161800-
SOUTHWEST MARICOPA COUNTY AND PINAL COUNTY

CITY           SKY/WX    TMP DP  RH WIND       PRES   REMARKS
CASA GRANDE    NOT AVBL
$$

AZZ503-504-507>509-161800-
SOUTHEAST ARIZONA

CITY           SKY/WX    TMP DP  RH WIND       PRES   REMARKS
TUCSON         PTSUNNY   53  14  21 SE14      29.86F
DAVIS-MONTHAN  CLOUDY    56  15  19 SE12      29.84F
RYAN FIELD     SUNNY     54  14  20 E15       29.84F
NOGALES        PTSUNNY   53  16  23 SE8       29.90S
SIERRA VISTA   MOSUNNY   45  15  29 CALM      29.91F
DOUGLAS        SUNNY     42  19  39 SE7       29.95S
SAFFORD        SUNNY     45  18  34 SE12      29.93R
$$

AZZ532-161800-
SOUTHWEST ARIZONA

CITY           SKY/WX    TMP DP  RH WIND       PRES   REMARKS
YUMA           CLOUDY    59  26  28 N5        29.76R
$$

CAZ041-043-047-048-061-525>527-560>570-161800-
SOUTHERN CALIFORNIA

CITY           SKY/WX    TMP DP  RH WIND       PRES   REMARKS
DOWNTOWN L.A.  SUNNY     59  47  64 E5        29.72F
L.A. AIRPORT   MOSUNNY   60  47  61 E9        29.73S
SAN DIEGO      CLOUDY    60  51  72 SE8       29.79S
BURBANK        SUNNY     55  39  54 CALM      29.73S
ONTARIO        MOSUNNY   57  28  33 NE3       29.75F
RIVERSIDE      PTSUNNY   51  30  44 E6        29.76S
PALM SPRINGS   CLOUDY    54  27  35 SW6       29.77R
EL CENTRO NAS  PTSUNNY   53  27  36 N7        29.76R
IMPERIAL       PTSUNNY   54  27  35 NE7       29.73S
BLYTHE         PTSUNNY   51  16  24 CALM      29.77R
NEEDLES        MOSUNNY   55  12  18 NE5       29.78R
$$

NVZ020-UTZ003-161800-
SOUTHERN NEVADA-UTAH

CITY           SKY/WX    TMP DP  RH WIND       PRES   REMARKS
LAS VEGAS      CLOUDY    49  18  29 S3        29.79S
SALT LAKE CITY LGT SNOW  34  30  85 N10       29.90R FOG     WCI  26
$$

NMZ009-TXZ055-161800-
NEW MEXICO-WEST TEXAS

CITY           SKY/WX    TMP DP  RH WIND       PRES   REMARKS
ALBUQUERQUE    MOSUNNY   34  17  50 W6        29.92F WCI  29
EL PASO        SUNNY     41  26  55 S7        29.95F
$$


........................KEY........................
SKY/WX - SKY CONDITION/WEATHER
TMP    - TEMPERATURE IN FAHRENHEIT
DP     - DEW POINT IN FAHRENHEIT
RH     - RELATIVE HUMIDITY IN PERCENT
WIND   - DIRECTION AND SPEED IN MILES PER HOUR (MPH)
VRB    - VARIABLE WIND DIRECTION
PRES   - MEAN SEA LEVEL PRESSURE IN INCHES OF MERCURY
         F - FALLING PRESSURE   R - RISING PRESSURE
         S - STEADY PRESSURE
VSB    - VISIBILITY IN MILES
HX     - HEAT INDEX IN FAHRENHEIT
WCI    - WIND CHILL INDEX IN FAHRENHEIT
TC     - TEMPERATURE IN CELSIUS WHICH IS ALSO KNOWN AS
         TEMPERATURE IN CENTIGRADE
AFB    - AIR FORCE BASE
         LUKE AFB IS LUKE AIR FORCE BASE
         DAVIS-MONTHAN IS DAVIS-MONTHAN AIR FORCE BASE
NAS    - NAVAL AIR STATION
         EL CENTRO NAS IS EL CENTRO NAVAL AIR STATION
N/A    - NOT AVAILABLE




USA.gov is the U.S. government's official web portal to all federal, state and local government web resources and services.